Regional Weather Roundup
Issued by NWS State College, PA

Home | Current Version | Previous Version | Graphics & Text | Print | Product List | Glossary Off
Versions: 1 2 3 4 5 6 7 8 9 10 11 12 13 14 15 16 17 18 19 20 21 22 23 24 25 26 27 28 29 30 31 32 33 34 35 36 37 38 39 40 41 42 43 44 45 46 47 48 49 50

000
ASUS41 KCTP 031703
RWRCTP

REGIONAL WEATHER ROUNDUP
NATIONAL WEATHER SERVICE STATE COLLEGE PA
100 PM EDT SUN MAY 03 2015

Note: "fair" indicates few or no clouds below 12,000 feet with no
significant weather and/or obstructions to visibility.

* = STATION THAT DOES NOT REPORT PRECIPITATION /E.G. RAIN...SNOW...ETC/
    THUNDER OR FOG.

PAZ002>004-007>009-013>016-020>023-029>032-031800-
WESTERN PENNSYLVANIA

CITY           SKY/WX    TMP DP  RH WIND       PRES   REMARKS
ERIE           SUNNY     71  41  33 W9        30.10S
MEADVILLE      MOSUNNY   73  39  29 VRB5      30.11F
FRANKLIN*      SUNNY     73  39  29 W7        30.13F
NEW CASTLE     FAIR      76  43  30 VRB3      30.12F
BEAVER COUNTY  NOT AVBL
BUTLER*        MOSUNNY   72  43  35 SW7       30.14F
PITTSBURGH INT PTSUNNY   71  41  33 W7        30.13F
PITTSBURGH     PTSUNNY   72  38  29 W8G17     30.13S
INDIANA*       PTSUNNY   72  43  35 NW7       30.17F
LATROBE        MOSUNNY   72  45  37 W10       30.16F
WASHINGTON CO* MOSUNNY   72  43  35 W10       30.16F
$$

PAZ004>006-010>012-017>019-024>028-033>037-041-042-045-046-049>053-031800-
CENTRAL PENNSYLVANIA

CITY           SKY/WX    TMP DP  RH WIND       PRES   REMARKS
BRADFORD       MOSUNNY   69  34  27 NW13      30.13S
DUBOIS         PTSUNNY   73  37  27 W10G16    30.12F
CLEARFIELD     MOSUNNY   73  38  27 W9        30.12F
JOHNSTOWN      PTSUNNY   69  38  32 W17G25    30.15F
ALTOONA        PTSUNNY   72  37  28 W9G18     30.13F
STATE COLLEGE  PTSUNNY   72  39  30 W9        30.11F
WILLIAMSPORT   SUNNY     76  36  23 VRB6      30.08F
SELINSGROVE    SUNNY     74  43  32 VRB6      30.10F
FT INDIANTOWN  MOSUNNY   76  35  22 VRB3      30.10S
CAPITAL CITY   SUNNY     76  39  26 W9G18     30.10F
HARRISBURG     MOSUNNY   77  37  23 MISG      30.09F
YORK           SUNNY     76  42  29 CALM      30.11F
$$

PAZ038>040-043-044-047-048-054-055-060>062-067>071-031800-
EASTERN PENNSYLVANIA

CITY           SKY/WX    TMP DP  RH WIND       PRES   REMARKS
SCRANTON       SUNNY     74  35  24 CALM      30.09F
MOUNT POCONO   SUNNY     71  30  21 MISG      30.11F
ALLENTOWN      SUNNY     77  38  24 CALM      30.09F
QUAKERTOWN*    SUNNY     73  37  27 NE3       30.11F
READING        SUNNY     76  39  26 VRB3      30.08F
LANCASTER      SUNNY     75  40  28 W15G21    30.10F
COATESVILLE    SUNNY     73  41  31 W6        30.12F
POTTSTOWN      SUNNY     75  40  28 W8        30.10F
BLUE BELL      SUNNY     75  39  27 SW5       30.10S
DOYLESTOWN     SUNNY     74  36  25 VRB7      30.09F
WILLOW GROVE   NOT AVBL
NORTH PHILA    SUNNY     76  42  29 SW5       30.11F
PHILADELPHIA   MOSUNNY   76  39  26 E5        30.10F
$$



USA.gov is the U.S. government's official web portal to all federal, state and local government web resources and services.